Preview of NWS' New Version of Forecast
This preview is not operational and should not be used for support decisions.

Regional Weather Roundup (RWR)

Issued by National Weather Service (NWS)

                            
000
ASUS43 KTOP 172259
RWRKS 

WEATHER ROUNDUP FOR KANSAS
NATIONAL WEATHER SERVICE GOODLAND KS
600 PM CDT WED APR 17 2019

NOTE:  "FAIR" INDICATES FEW OR NO CLOUDS BELOW 12,000 FEET WITH NO
SIGNIFICANT WEATHER AND/OR OBSTRUCTIONS TO VISIBILITY.

KSZ001>006-013>018-027>032-041>047-180000-
NORTHWEST KANSAS
  
CITY           SKY/WX    TMP DP  RH WIND       PRES   REMARKS
GOODLAND       SUNNY     66  34  30 N25G36    29.83R                  
HAYS           PTSUNNY   72  48  42 N25       29.73S                  
HILL CITY      SUNNY     71  41  33 N20       29.79R                  
RUSSELL        CLOUDY    70  48  45 N18       29.72R                  
$$

KSZ061>065-074>080-084>089-180000-
SOUTHWEST KANSAS
  
CITY           SKY/WX    TMP DP  RH WIND       PRES   REMARKS
DODGE CITY     MOSUNNY   72  45  37 N22G32    29.71S                  
GARDEN CITY    CLOUDY    69  43  38 N24G36    29.73F                  
GREAT BEND     CLOUDY    72  51  47 N17       29.71R                  
LIBERAL        MOSUNNY   70  48  45 N25G32    29.70R                  
$$

KSZ066>073-081>083-090>101-180000-
SOUTHEAST KANSAS
  
CITY           SKY/WX    TMP DP  RH WIND       PRES   REMARKS
CHANUTE        PTSUNNY   78  63  59 S21G29    29.65S                  
COFFEYVILLE    CLOUDY    76  63  64 S14       29.65F                  
HUTCHINSON     CLOUDY    75  58  55 N8        29.65F                  
MEDICINE LODGE   N/A     74  59  59 NE13G20   29.62F                  
NEWTON         MOSUNNY   73  57  57 N16       29.64F                  
PARSONS        CLOUDY    76  64  66 S13G24    29.67S                  
WICHITA INTL   CLOUDY    76  58  53 N10       29.64R                  
WICHITA JABRA  CLOUDY    74  59  59 N7        29.65R                  
WICHITA MCCONL MOSUNNY   77  57  48 NW12      29.64R                  
WINFIELD       PTSUNNY   78  62  57 S12       29.63F                  
$$

KSZ007>012-019>026-033>040-048>060-102>105-180000-
NORTHEAST KANSAS
  
CITY           SKY/WX    TMP DP  RH WIND       PRES   REMARKS
CONCORDIA      MOSUNNY   73  50  44 N15G30    29.71R                  
EMPORIA        PTSUNNY   77  60  55 NW12      29.61F                  
LAWRENCE       CLOUDY    76  59  55 W9        29.63F                  
MANHATTAN      CLOUDY    77  53  43 N13G24    29.65R                  
OLATHE IND     CLOUDY    75  61  61 W8        29.66R                  
OLATHE EXE     CLOUDY    74  60  61 S8        29.65S                  
SALINA         PTSUNNY   76  49  38 N21G28    29.67R                  
TOPEKA BILLARD CLOUDY    77  57  50 W9        29.63S                  
TOPEKA FORBES  CLOUDY    76  57  51 W8        29.63F                  
$$